1288828829919,3.03748
1288828889919,3.03774
1288828949919,3.05999
1288829009919,3.02015
1288829069919,3.03931
1288829129919,3.01110
1288829189919,3.07682
1288829249919,3.05566
1288829309919,3.05286
1288829369919,3.04183
1288829429919,3.07062
1288829489919,3.07510
1288829549919,3.04678
1288829609919,3.06375
1288829669919,3.05842
1288829729919,3.05198
1288829789919,3.06395
1288829849919,3.09848
1288829909919,3.04764
1288829969919,3.07112
1288830029919,3.06029
1288830089919,3.09187
1288830149919,3.07566
1288830209919,3.05890
1288830269919,3.07440
1288830329919,3.02813
1288830389919,3.02222
1288830449919,3.01424
1288830509919,3.05378
1288830569919,3.07528
1288830629919,3.03992
1288830689919,3.06146
1288830749919,3.05547
1288830809919,3.17946
1288830869919,3.02885
1288830929919,3.04371
1288830989919,3.07245
1288831049919,3.04550
1288831109919,3.10150
1288831169919,3.02715
1288831229919,3.07806
1288831289919,3.07666
1288831349919,3.06353
1288831409919,3.08088
1288831469919,3.05625
1288831529919,3.04622
1288831589919,3.09309
1288831649919,3.08262
1288831709919,3.06489
1288831769919,3.09000
1288831829919,3.05723
1288831889919,3.05664
1288831949919,3.07634
1288832009919,3.08437
1288832069919,3.06184
1288832129919,3.11627
1288832189919,3.06981
1288832249919,3.12576
1288832309919,3.09274
1288832369919,3.08369
1288832429929,3.09333
1288832489929,3.05093
1288832549929,3.07347
1288832609929,3.05493
1288832669929,3.06936
1288832729929,3.04767
1288832789929,3.08285
1288832849929,3.09657
1288832909929,3.04582
1288832969929,3.07930
1288833029929,3.04394
1288833089929,3.07393
1288833149929,3.06795
1288833209929,3.06613
1288833269929,3.08617
1288833329929,3.05880
1288833389929,3.04792
1288833449929,3.09712
1288833509929,3.06052
1288833569929,3.05633
1288833629929,3.05742
1288833689929,3.06395
1288833749929,3.06799
1288833809929,3.07963
1288833869929,3.10386
1288833929929,3.10218
1288833989929,3.06371
1288834049929,3.06732
1288834109929,3.07810
1288834169929,3.00906
1288834229929,3.06457
1288834289929,3.05658
1288834349929,3.03473
1288834409929,3.10754
1288834469929,3.05757
1288834529929,3.06726
1288834589929,3.08481
1288834649929,3.07671
1288834709929,3.09042
1288834769929,3.10141
1288834829929,3.07593
1288834889929,3.06890
1288834949929,3.07046
1288835009929,3.06880
1288835069929,3.07432
1288835129929,3.06878
1288835189929,3.07021
1288835249929,3.06404
1288835309929,3.09978
1288835369929,3.09325
1288835429929,3.06723
1288835489929,3.08694
1288835549929,3.06973
1288835609929,3.06302
1288835669929,3.06181
1288835729929,3.07427
1288835789929,3.08949
1288835849929,3.04831
1288835909929,3.04992
1288835969929,3.04432
1288836029939,3.03407
1288836089939,3.09850
1288836149939,3.07005
1288836209939,3.08539
1288836269939,3.08514
1288836329939,3.08863
1288836389939,3.05350
1288836449939,3.05651
1288836509939,3.07499
1288836569939,3.06947
1288836629939,3.06088
1288836689939,3.04747
1288836749939,3.04863
1288836809939,3.06485
1288836869939,3.08857
1288836929939,3.08156
1288836989939,3.10229
1288837049939,3.08046
1288837109939,3.09178
1288837169939,3.08567
1288837229939,3.07208
1288837289939,3.04238
1288837349939,3.08257
1288837409939,3.07372
1288837469939,3.04684
1288837529939,3.04186
1288837589939,3.10493
1288837649939,3.08321
1288837709939,3.08286
1288837769939,3.08557
1288837829939,3.09006
1288837889939,3.05466
1288837949939,3.11449
1288838009939,3.06466
1288838069939,3.09667
1288838129939,3.06554
1288838189939,3.09153
1288838249939,3.11834
1288838309939,3.12416
1288838369939,3.14188
1288838429939,3.14248
1288838489939,3.15593
1288838549939,3.18747
1288838609939,3.17927
1288838669939,3.18017
1288838729939,3.16266
1288838789939,3.14087
1288838849939,3.15002
1288838909939,3.19452
1288838969939,3.15269
1288839029939,3.15349
1288839089939,3.13168
1288839149939,3.14499
1288839209939,3.09894
1288839269939,3.12553
1288839329939,3.12177
1288839389939,3.15470
1288839449939,3.12585
1288839509939,3.09785
1288839569939,3.12557
1288839629949,3.09952
1288839689949,3.07337
1288839749949,3.07804
1288839809949,3.10200
1288839869949,3.09685
1288839929949,3.11715
1288839989949,3.10675
1288840049949,3.07960
1288840109949,3.08270
1288840169949,3.05536
1288840229949,3.07878
1288840289949,3.10231
1288840349949,3.06320
1288840409949,3.13120
1288840469949,3.12343
1288840529949,3.08561
1288840589949,3.08326
1288840649949,3.11150
1288840709949,3.07656
1288840769949,3.11511
1288840829949,3.12572
1288840889949,3.07245
1288840949949,3.07544
1288841009949,3.08379
1288841069949,3.09846
1288841129949,3.06859
1288841189949,3.09269
1288841249949,3.08739
1288841309949,3.12391
1288841369949,3.12621
1288841429949,3.12504
1288841489949,3.08556
1288841549949,3.08961
1288841609949,3.12313
1288841669949,3.09991
1288841729949,3.08051
1288841789949,3.09550
1288841849949,3.10950
1288841909949,3.09269
1288841969949,3.13304
1288842029949,3.13296
1288842089949,3.12096
1288842149949,3.10050
1288842209949,3.09532
1288842269949,3.11148
1288842329949,3.10611
1288842389949,3.07997
1288842449949,3.12396
1288842509949,3.10747
1288842569949,3.09941
1288842629949,3.12142
1288842689949,3.10734
1288842749949,3.09899
1288842809949,3.15389
1288842869949,3.11653
1288842929949,3.11293
1288842989949,3.13031
1288843049949,3.10556
1288843109949,3.10257
1288843169949,3.09335
1288843229959,3.12222
1288843289959,3.11953
1288843349959,3.10523
1288843409959,3.13367
1288843469959,3.12515
1288843529959,3.12228
1288843589959,3.13911
1288843649959,3.14314
1288843709959,3.14043
1288843769959,3.13465
1288843829959,3.10122
1288843889959,3.13600
1288843949959,3.10311
1288844009959,3.12239
1288844069959,3.08081
1288844129959,3.09224
1288844189959,3.11267
1288844249959,3.10531
1288844309959,3.09532
1288844369959,3.09844
1288844429959,3.10935
1288844489959,3.10161
1288844549959,3.13396
1288844609959,3.14658
1288844669959,3.15737
1288844729959,3.13491
1288844789959,3.14608
1288844849959,3.14933
1288844909959,3.14611
1288844969959,3.13794
1288845029959,3.13335
1288845089959,3.13716
1288845149959,3.15709
1288845209959,3.15454
1288845269959,3.10686
1288845329959,3.09834
1288845389959,3.13812
1288845449959,3.14310
1288845509959,3.13081
1288845569959,3.14437
1288845629959,3.13754
1288845689959,3.12675
1288845749959,3.11637
1288845809959,3.11887
1288845869959,3.15722
1288845929959,3.13933
1288845989959,3.12510
1288846049959,3.18176
1288846109959,3.12356
1288846169959,3.11303
1288846229959,3.11843
1288846289959,3.13669
1288846349959,3.13643
1288846409959,3.10991
1288846469959,3.10276
1288846529959,3.10752
1288846589959,3.13650
1288846649959,3.16495
1288846709959,3.19892
1288846769959,3.12491
1288846829969,3.13660
1288846889969,3.14028
1288846949969,3.15873
1288847009969,3.13576
1288847069969,3.11882
1288847129969,3.10347
1288847189969,3.11997
1288847249969,3.13387
1288847309969,3.13657
1288847369969,3.14192
1288847429969,3.14507
1288847489969,3.15356
1288847549969,3.16870
1288847609969,3.13101
1288847669969,3.15181
1288847729969,3.13730
1288847789969,3.15796
1288847849969,3.11972
1288847909969,3.14406
1288847969969,3.12405
1288848029969,3.11399
1288848089969,3.14648
1288848149969,3.16257
1288848209969,3.14835
1288848269969,3.13994
1288848329969,3.13268
1288848389969,3.16372
1288848449969,3.16211
1288848509969,3.15184
1288848569969,3.16488
1288848629969,3.13063
1288848689969,3.15778
1288848749969,3.15292
1288848809969,3.16401
1288848869969,3.14831
1288848929969,3.15990
1288848989969,3.16889
1288849049969,3.14707
1288849109969,3.15157
1288849169969,3.13545
1288849229969,3.16210
1288849289969,3.17260
1288849349969,3.14901
1288849409969,3.14689
1288849469969,3.19480
1288849529969,3.18061
1288849589969,3.16778
1288849649969,3.16782
1288849709969,3.17772
1288849769969,3.14010
1288849829969,3.21178
1288849889969,3.14520
1288849949969,3.15075
1288850009969,3.12469
1288850069969,3.15048
1288850129969,3.14538
1288850189969,3.13361
1288850249969,3.13336
1288850309969,3.13674
1288850369969,3.15449
1288850429979,3.25165
1288850489979,3.13839
1288850549979,3.13260
1288850609979,3.13445
1288850669979,3.08548
1288850729979,3.12605
1288850789979,3.13574
1288850849979,3.12304
1288850909979,3.15170
1288850969979,3.11861
1288851029979,3.13403
1288851089979,3.15413
1288851149979,3.16780
1288851209979,3.13068
1288851269979,3.12614
1288851329979,3.13525
1288851389979,3.14263
1288851449979,3.15088
1288851509979,3.15176
1288851569979,3.13475
1288851629979,3.14863
1288851689979,3.15169
1288851749979,3.12094
1288851809979,3.12950
1288851869979,3.11392
1288851929979,3.13043
1288851989979,3.12054
1288852049979,3.09052
1288852109979,3.12158
1288852169979,3.13875
1288852229979,3.11776
1288852289979,3.14614
1288852349979,3.08888
1288852409979,3.15219
1288852469979,3.11700
1288852529979,3.12022
1288852589979,3.14742
1288852649979,3.10834
1288852709979,3.11244
1288852769979,3.12034
1288852829979,3.13731
1288852889979,3.13832
1288852949979,3.11801
1288853009979,3.14763
1288853069979,3.10629
1288853129979,3.16593
1288853189979,3.12900
1288853249979,3.15082
1288853309979,3.15771
1288853369979,3.17529
1288853429979,3.20796
1288853489979,3.11992
1288853549979,3.09142
1288853609979,3.13310
1288853669979,3.11618
1288853729979,3.13610
1288853789979,3.13651
1288853849979,3.11212
1288853909979,3.15610
1288853969979,3.10706
1288854029989,3.10476
1288854089989,3.15679
1288854149989,3.11322
1288854209989,3.11450
1288854269989,3.09356
1288854329989,3.21299
1288854389989,3.13080
1288854449989,3.08018
1288854509989,3.14886
1288854569989,3.13626
1288854629989,3.13806
1288854689989,3.10571
1288854749989,3.15042
1288854809989,3.16294
1288854869989,3.15529
1288854929989,3.14730
1288854989989,3.12144
1288855049989,3.09602
1288855109989,3.11379
1288855169989,3.11885
1288855229989,3.12626
1288855289989,3.13237
1288855349989,3.11839
1288855409989,3.12209
1288855469989,3.13609
1288855529989,3.15545
1288855589989,3.10658
1288855649989,3.10824
1288855709989,3.12843
1288855769989,3.11942
1288855829989,3.10637
1288855889989,3.09362
1288855949989,3.13921
1288856009989,3.14436
1288856069989,3.16129
1288856129989,3.14866
1288856189989,3.16867
1288856249989,3.16696
1288856309989,3.16221
1288856369989,3.16730
1288856429989,3.15173
1288856489989,3.16780
1288856549989,3.15355
1288856609989,3.11228
1288856669989,3.14415
1288856729989,3.10190
1288856789989,3.13389
1288856849989,3.15091
1288856909989,3.14966
1288856969989,3.10674
1288857029989,3.17064
1288857089989,3.16303
1288857149989,3.15747
1288857209989,3.11195
1288857269989,3.13872
1288857329989,3.09433
1288857389989,3.09600
1288857449989,3.12673
1288857509989,3.10334
1288857569989,3.10360
1288857630000,3.15127
1288857690000,3.16063
1288857750000,3.16431
1288857810000,3.14971
1288857870000,3.16170
1288857930000,3.15042
1288857990000,3.14702
1288858050000,3.13972
1288858110000,3.12674
1288858170000,3.13706
1288858230000,3.14590
1288858290000,3.15234
1288858350000,3.13621
1288858410000,3.14316
1288858470000,3.15609
1288858529999,3.16645
1288858589999,3.11582
1288858649999,3.12949
1288858710000,3.12944
1288858770000,3.12305
1288858830000,3.14531
1288858890000,3.12828
1288858950000,3.14693
1288859010000,3.12222
1288859070000,3.11029
1288859130000,3.13124
1288859190000,3.06510
1288859250000,3.17294
1288859310000,3.12490
1288859370000,3.12861
1288859430000,3.15688
1288859490000,3.12320
1288859550000,3.16681
1288859610000,3.09823
1288859670000,3.15248
1288859730000,3.16416
1288859790000,3.14724
1288859850000,3.17381
1288859909999,3.14046
1288859969999,3.16259
1288860030000,3.14168
1288860090000,3.16031
1288860150000,3.16090
1288860210000,3.16828
1288860270000,3.13286
1288860330000,3.09190
1288860390000,3.12400
1288860450000,3.13910
1288860510000,3.15140
1288860570000,3.13478
1288860630000,3.13855
1288860690000,3.12842
1288860750000,3.10352
1288860810000,3.15866
1288860870000,3.17385
1288860930000,3.15918
1288860990000,3.16032
1288861050000,3.11684
1288861110000,3.12531
1288861170000,3.16552
1288861230010,3.14229
1288861290010,3.18951
1288861350010,3.13629
1288861410010,3.15072
1288861470010,3.19721
1288861530010,3.17606
1288861590010,3.14594
1288861650010,3.18466
1288861710010,3.14254
1288861770010,3.15102
1288861830010,3.16257
1288861890010,3.16276
1288861950010,3.19093
1288862010010,3.17571
1288862070010,3.14445
1288862130010,3.15319
1288862190010,3.14461
1288862250010,3.10608
1288862310010,3.14706
1288862370010,3.09095
1288862430010,3.11569
1288862490010,3.13223
1288862550010,3.14502
1288862610010,3.12643
1288862670010,3.10624
1288862730010,3.11857
1288862790010,3.12898
1288862850010,3.13642
1288862910010,3.13662
1288862970010,3.12582
1288863030010,3.13396
1288863090010,3.13321
1288863150010,3.15484
1288863210010,3.16218
1288863270010,3.13217
1288863330010,3.14698
1288863390010,3.16118
1288863450010,3.13656
1288863510010,3.10749
1288863570010,3.11425
1288863630010,3.11546
1288863690010,3.09352
1288863750010,3.14038
1288863810010,3.15506
1288863870010,3.16750
1288863930010,3.17340
1288863990010,3.14610
1288864050010,3.15859
1288864110010,3.14957
1288864170010,3.13919
1288864230010,3.09807
1288864290010,3.13201
1288864350010,3.13622
1288864410010,3.13850
1288864470010,3.15627
1288864530010,3.14874
1288864590010,3.16933
1288864650010,3.13287
1288864710010,3.15485
1288864770010,3.16213
1288864830021,3.12772
1288864890021,3.16266
1288864950021,3.13878
1288865010021,3.14911
1288865070021,3.12440
1288865130021,3.11980
1288865190021,3.13699
1288865250021,3.11979
1288865310021,3.12615
1288865370021,3.12239
1288865430021,3.15044
1288865490021,3.15367
1288865550021,3.13414
1288865610021,3.16875
1288865670021,3.14320
1288865730021,3.13061
1288865790021,3.12682
1288865850021,3.09789
1288865910021,3.15832
1288865970021,3.14533
1288866030021,3.11336
1288866090021,3.12133
1288866150021,3.09834
1288866210021,3.12543
1288866270021,3.12314
1288866330021,3.12032
1288866390021,3.11612
1288866450021,3.10330
1288866510021,3.11722
1288866570021,3.11436
1288866630021,3.12633
1288866690021,3.12888
1288866750021,3.11332
1288866810021,3.15122
1288866870021,3.12455
1288866930021,3.14065
1288866990021,3.12468
1288867050021,3.13806
1288867110021,3.15581
1288867170021,3.15731
1288867230021,3.14157
1288867290021,3.17204
1288867350021,3.12695
1288867410021,3.11117
1288867470021,3.08925
1288867530021,3.11234
1288867590021,3.13792
1288867650021,3.14202
1288867710021,3.12183
1288867770021,3.09597
1288867830021,3.12977
1288867890021,3.22235
1288867950021,3.12315
1288868010021,3.13792
1288868070021,3.14527
1288868130021,3.12031
1288868190021,3.12236
1288868250021,3.14587
1288868310021,3.13186
1288868370021,3.11549
1288868430032,3.07181
1288868490032,3.13248
1288868550032,3.16641
1288868610032,3.10717
1288868670032,3.12522
1288868730032,3.12252
1288868790032,3.13725
1288868850032,3.10405
1288868910032,3.14538
1288868970032,3.09845
1288869030032,3.13165
1288869090032,3.10359
1288869150032,3.13421
1288869210032,3.11706
1288869270032,3.13076
1288869330032,3.11375
1288869390032,3.13376
1288869450032,3.14473
1288869510032,3.14102
1288869570032,3.12006
1288869630032,3.10258
1288869690032,3.10269
1288869750032,3.14286
1288869810032,3.11424
1288869870032,3.15903
1288869930032,3.13102
1288869990032,3.18673
1288870050032,3.11834
1288870110032,3.12616
1288870170032,3.12115
1288870230032,3.11774
1288870290032,3.14979
1288870350032,3.16398
1288870410032,3.15447
1288870470032,3.14888
1288870530032,3.16117
1288870590032,3.13027
1288870650032,3.12910
1288870710032,3.17140
1288870770032,3.12681
1288870830032,3.14422
1288870890032,3.16455
1288870950032,3.13416
1288871010032,3.15906
1288871070032,3.16029
1288871130032,3.16309
1288871190032,3.16747
1288871250032,3.12285
1288871310032,3.12013
1288871370032,3.11300
1288871430032,3.13195
1288871490032,3.14520
1288871550032,3.15420
1288871610032,3.13779
1288871670032,3.15501
1288871730032,3.13104
1288871790032,3.10336
1288871850032,3.14022
1288871910032,3.13216
1288871970032,3.14317
1288872030044,3.14900
1288872090044,3.09259
1288872150044,3.12907
1288872210044,3.13414
1288872270044,3.12703
1288872330044,3.10683
1288872390044,3.09650
1288872450044,3.11698
1288872510044,3.14003
1288872570044,3.13021
1288872630044,3.15308
1288872690044,3.14056
1288872750044,3.14435
1288872810044,3.13472
1288872870044,3.08388
1288872930044,3.13035
1288872990044,3.11822
1288873050044,3.12816
1288873110044,3.17655
1288873170044,3.11221
1288873230044,3.13772
1288873290044,3.10600
1288873350044,3.13849
1288873410044,3.12309
1288873470044,3.13067
1288873530044,3.12251
1288873590044,3.14450
1288873650044,3.17176
1288873710044,3.13959
1288873770044,3.12605
1288873830044,3.14285
1288873890044,3.15206
1288873950044,3.13397
1288874010044,3.13462
1288874070044,3.11734
1288874130044,3.16592
1288874190044,3.14841
1288874250044,3.13949
1288874310044,3.09794
1288874370044,3.10628
1288874430044,3.12961
1288874490044,3.17624
1288874550044,3.12431
1288874610044,3.14954
1288874670044,3.09569
1288874730044,3.12733
1288874790044,3.12218
1288874850044,3.14023
1288874910044,3.08945
1288874970044,3.10389
1288875030044,3.09394
1288875090044,3.09602
1288875150044,3.10865
1288875210044,3.08975
1288875270044,3.14005
1288875330044,3.13594
1288875390044,3.07970
1288875450044,3.14280
1288875510044,3.10091
1288875570044,3.13983
1288875630055,3.17156
1288875690055,3.11868
1288875750055,3.13130
1288875810055,3.11500
1288875870055,3.08375
1288875930055,3.10279
1288875990055,3.14246
1288876050055,3.15904
1288876110055,3.13392
1288876170055,3.12325
1288876230055,3.13863
1288876290055,3.11943
1288876350055,3.14478
1288876410055,3.14869
1288876470055,3.13718
1288876530055,3.13956
1288876590055,3.11799
1288876650055,3.12634
1288876710055,3.08296
1288876770055,3.10103
1288876830055,3.15165
1288876890055,3.11707
1288876950055,3.12324
1288877010055,3.10443
1288877070055,3.13815
1288877130055,3.13673
1288877190055,3.13528
1288877250055,3.10193
1288877310055,3.12780
1288877370055,3.11724
1288877430055,3.11279
1288877490055,3.10482
1288877550055,3.10140
1288877610055,3.09949
1288877670055,3.09688
1288877730055,3.13172
1288877790055,3.09664
1288877850055,3.10024
1288877910055,3.10921
1288877970055,3.10879
1288878030055,3.16527
1288878090055,3.09841
1288878150055,3.13588
1288878210055,3.10403
1288878270055,3.10835
1288878330055,3.09794
1288878390055,3.11230
1288878450055,3.14636
1288878510055,3.15604
1288878570055,3.15965
1288878630055,3.13981
1288878690055,3.14799
1288878750055,3.11593
1288878810055,3.13899
1288878870055,3.14160
1288878930055,3.15740
1288878990055,3.14065
1288879050055,3.14020
1288879110055,3.13205
1288879170055,3.14690
1288887030090,3.06402
1288887090090,3.12970
1288887150090,3.14878
1288894710113,3.11072
1288894770113,3.15009
1288894830113,3.13841
1288894890113,3.10399
1288894950113,3.15201
1288895010113,3.12542
1288895070113,3.08748
1288902930138,3.08461
1288902990138,3.06746
1288903050137,3.12039
1288910610161,3.11106
1288910670161,3.11246
1288910730161,3.08910
1288910790161,3.10019
1288910850161,3.11117
1288910910161,3.10574
1288910970161,3.05671
1288911030161,3.10301
1288911090161,3.09696
1288911150161,3.10686
1288911210161,3.11652
1288911270161,3.10639
1288911330161,3.10959
1288911390161,3.12479
1288911450161,3.07758
1288911510161,3.08154
1288911570161,3.11255
1288911630172,3.10625
1288911690172,3.14381
1288911750172,3.08151
1288911810172,3.08306
1288911870172,3.06869
1288911930172,3.04032
1288911990172,3.05746
1288912050172,3.08517
1288912110172,3.08950
1288912170172,3.07477
1288912230172,3.07601
1288912290172,3.04020
1288912350172,3.09144
1288912410172,3.06183
1288912470172,3.10627
1288912530172,3.10307
1288912590172,3.09479
1288912650172,3.11139
1288912710172,3.11778
1288912770172,3.10927
1288912830172,3.07857
1288912890172,3.10849
1288912950172,3.06593
1288913010172,3.11397
1288913070172,3.10044
1288913130172,3.06915
1288913190172,3.09722
1288913250172,3.09187
1288913310172,3.11830
1288913370172,3.09624
1288913430172,3.10973
1288913490172,3.10569
1288913550172,3.08776
1288913610172,3.10518
1288913670172,3.13853
1288913730172,3.17059
1288913790172,3.16896
1288913850172,3.16053
1288913910172,3.19281
1288913970172,3.15480
1288914030172,3.15771
1288914090172,3.15867
1288914150172,3.15011
1288914210172,3.17479
1288914270172,3.17821
1288914330172,3.14995
1288914390172,3.15669
1288914450172,3.18185
1288914510172,3.17545
1288914570172,3.17882
1288914630172,3.20141
1288914690172,3.21471
1288914750172,3.23865
1288914810172,3.28531
1288914870172,3.44661
1288914930172,3.74512
1288914990172,4.16478
1288915050172,4.59791
1288915110172,4.96887
1288915170172,4.97894
